Marianna, WV

4:32 PM EST on January 23, 2017 (GMT -0500)
Pineville

Weather History for KI16 - March, 2013

Change the Weather History Date:

Sunday, March 3, 2013

  Actual Average (KBKW) Record (KBKW)
Temperature  
Mean Temperature 28 °F -  
Max Temperature 32 °F 49 °F 73 °F (1974)
Min Temperature 25 °F 32 °F -5 °F (1980)
Degree Days  
Heating Degree Days 37    
Moisture  
Dew Point 24 °F    
Average Humidity 85    
Maximum Humidity 96    
Minimum Humidity 70    
Precipitation  
Precipitation 0.00 in - - ()
Sea Level Pressure  
Sea Level Pressure 30.01 in    
Wind  
Wind Speed - (North)    
Max Wind Speed -    
Max Gust Speed -    
Visibility 6 miles    
Events Snow    
Averages and records for this station are not official NWS values.
T = Trace of Precipitation, MM = Missing Value Source: NWS Daily Summary

Daily Weather History Graph

Daily Weather History Graph

Search for Another Location

Airport or City:

Trip Planner

Search our weather history database for the weather conditions in past years. The results will help you decide how hot, cold, wet, or windy it might be!

Date:

Astronomy

Mar. 03, 2013 Rise Set
Actual Time 6:54 AM EST 6:22 PM EST
Civil Twilight 6:28 AM EST 6:48 PM EST
Nautical Twilight 5:58 AM EST 7:18 PM EST
Astronomical Twilight 5:27 AM EST 7:49 PM EST
Moon No Moon Rise 10:16 AM EST (3/3)
Length of Visible Light 12h 20m
Length of Day
11h 27m
Waning Gibbous, 64% of the Moon is Illuminated
Mar 3
Waning Gibbous
Mar 4
Last Quarter
Mar 11
New
Mar 19
First Quarter
Mar 27
Full

Hourly Weather History & Observations

Time (EST) Temp. Dew Point Humidity Pressure Visibility Wind Dir Wind Speed Gust Speed Precip Events Conditions
12:15 AM 27.0 °F 23.9 °F 88% 30.00 in 4.0 mi North - - N/A Snow Light Snow
12:35 AM 26.6 °F 23.9 °F 90% 30.00 in 7.0 mi North - - N/A Snow Light Snow
12:55 AM 26.6 °F 23.9 °F 90% 30.00 in 7.0 mi North - - N/A Snow Light Snow
1:15 AM 26.6 °F 23.7 °F 89% 30.00 in 10.0 mi North - - N/A   Overcast
1:35 AM 26.6 °F 23.5 °F 88% 30.00 in 7.0 mi North - - N/A Snow Light Snow
1:55 AM 26.6 °F 23.2 °F 87% 30.00 in 4.0 mi North - - N/A Snow Light Snow
2:15 AM 26.6 °F 22.5 °F 84% 30.00 in 10.0 mi North - - N/A   Overcast
2:35 AM 26.6 °F 23.0 °F 86% 30.00 in 4.0 mi North - - N/A Snow Light Snow
2:55 AM 26.4 °F 22.6 °F 86% 29.99 in 7.0 mi North - - N/A Snow Light Snow
3:15 AM 26.6 °F 22.3 °F 84% 29.99 in 7.0 mi North - - N/A Snow Light Snow
3:35 AM 26.6 °F 22.8 °F 86% 29.99 in 7.0 mi North - - N/A Snow Light Snow
4:15 AM 26.4 °F 23.0 °F 87% 29.99 in 10.0 mi North - - N/A   Overcast
4:35 AM 26.4 °F 22.8 °F 86% 29.99 in 7.0 mi North - - N/A Snow Light Snow
4:55 AM 26.6 °F 23.0 °F 86% 29.99 in 5.0 mi North - - N/A Snow Light Snow
5:15 AM 26.6 °F 23.9 °F 90% 29.98 in 3.0 mi North - - N/A Snow Light Snow
5:35 AM 26.2 °F 24.8 °F 94% 29.98 in 1.5 mi North - - N/A Snow Light Snow
5:55 AM 25.9 °F 24.8 °F 96% 29.99 in 1.2 mi North - - N/A Snow Light Snow
6:15 AM 25.7 °F 24.3 °F 94% 29.99 in 3.0 mi North - - N/A Snow Light Snow
6:35 AM 25.9 °F 24.1 °F 93% 29.99 in 5.0 mi North - - N/A Snow Light Snow
6:55 AM 25.7 °F 23.9 °F 93% 29.99 in 2.0 mi North - - N/A Snow Light Snow
7:15 AM 25.3 °F 23.9 °F 94% 30.00 in 1.8 mi North - - N/A Snow Light Snow
7:35 AM 25.3 °F 23.7 °F 94% 30.00 in 1.0 mi North - - N/A Snow Light Snow
7:55 AM 25.3 °F 23.7 °F 94% 30.01 in 1.5 mi North - - N/A Snow Light Snow
8:15 AM 25.3 °F 23.9 °F 94% 30.01 in 1.2 mi North - - N/A Snow Light Snow
8:35 AM 25.3 °F 23.9 °F 94% 30.02 in 1.2 mi North - - N/A Snow Light Snow
8:55 AM 25.7 °F 22.6 °F 88% 30.02 in 3.0 mi North - - N/A Snow Light Snow
9:15 AM 25.7 °F 22.8 °F 89% 30.01 in 2.0 mi North - - N/A Snow Light Snow
9:35 AM 26.8 °F 23.4 °F 87% 30.01 in 3.0 mi North - - N/A Snow Light Snow
9:55 AM 28.4 °F 23.2 °F 81% 30.01 in 7.0 mi North - - N/A Snow Light Snow
10:15 AM 27.9 °F 23.0 °F 82% 30.01 in 7.0 mi North - - N/A Snow Light Snow
10:35 AM 27.9 °F 23.4 °F 83% 30.01 in 4.0 mi North - - N/A Snow Light Snow
10:55 AM 27.9 °F 23.2 °F 83% 30.01 in 4.0 mi North - - N/A Snow Light Snow
11:15 AM 29.1 °F 20.5 °F 70% 30.01 in 10.0 mi North - - N/A   Overcast
11:35 AM 28.8 °F 20.3 °F 71% 30.01 in 10.0 mi North - - N/A   Overcast
11:55 AM 29.3 °F 21.9 °F 74% 30.01 in 5.0 mi North - - N/A Snow Light Snow
12:15 PM 30.2 °F 22.5 °F 73% 30.01 in 5.0 mi North - - N/A Snow Light Snow
12:35 PM 29.8 °F 23.5 °F 77% 30.00 in 4.0 mi North - - N/A Snow Light Snow
12:55 PM 31.5 °F 24.3 °F 75% 29.99 in 7.0 mi North - - N/A Snow Light Snow
1:15 PM 30.9 °F 22.8 °F 72% 29.98 in 10.0 mi North - - N/A   Overcast
1:35 PM 29.8 °F 24.1 °F 79% 29.98 in 5.0 mi North - - N/A Snow Light Snow
1:55 PM 30.6 °F 24.8 °F 79% 29.97 in 3.0 mi North - - N/A Snow Light Snow
2:15 PM 31.6 °F 24.4 °F 75% 29.97 in 5.0 mi North - - N/A Snow Light Snow
2:35 PM 29.3 °F 25.0 °F 84% 29.98 in 1.8 mi North - - N/A Snow Light Snow
2:55 PM 28.4 °F 25.5 °F 89% 29.98 in 1.0 mi North - - N/A Snow Light Snow
3:15 PM 29.8 °F 25.2 °F 83% 29.98 in 5.0 mi North - - N/A Snow Light Snow
3:35 PM 30.6 °F 25.9 °F 83% 29.98 in 7.0 mi North - - N/A Snow Light Snow
3:55 PM 31.5 °F 24.8 °F 76% 29.98 in 10.0 mi North - - N/A   Overcast
4:15 PM 30.2 °F 25.3 °F 82% 29.98 in 1.5 mi North - - N/A Snow Light Snow
4:35 PM 29.7 °F 25.7 °F 85% 29.99 in 1.5 mi North - - N/A Snow Light Snow
4:55 PM 29.3 °F 24.8 °F 83% 30.00 in 5.0 mi North - - N/A Snow Light Snow
5:15 PM 29.8 °F 24.3 °F 80% 30.00 in 10.0 mi North - - N/A   Overcast
5:35 PM 29.7 °F 23.9 °F 79% 30.00 in 5.0 mi North - - N/A Snow Light Snow
5:55 PM 28.8 °F 24.6 °F 84% 30.01 in 1.8 mi North - - N/A Snow Light Snow
6:15 PM 28.4 °F 24.6 °F 86% 30.02 in 2.5 mi North - - N/A Snow Light Snow
6:35 PM 28.0 °F 22.5 °F 80% 30.02 in 10.0 mi North - - N/A   Overcast
6:55 PM 27.7 °F 21.7 °F 78% 30.03 in 10.0 mi North - - N/A   Overcast
7:35 PM 27.7 °F 21.9 °F 79% 30.03 in 10.0 mi North - - N/A   Overcast
7:55 PM 27.5 °F 22.1 °F 80% 30.04 in 10.0 mi North - - N/A   Overcast
8:15 PM 27.0 °F 23.0 °F 85% 30.04 in 7.0 mi North - - N/A Snow Light Snow
8:35 PM 27.3 °F 22.8 °F 83% 30.05 in 7.0 mi North - - N/A Snow Light Snow
8:55 PM 27.5 °F 23.4 °F 84% 30.05 in 7.0 mi North - - N/A Snow Light Snow
9:15 PM 27.5 °F 23.7 °F 86% 30.06 in 7.0 mi North - - N/A Snow Light Snow
9:35 PM 27.3 °F 24.3 °F 88% 30.06 in 3.0 mi North - - N/A Snow Light Snow
9:55 PM 27.3 °F 24.8 °F 90% 30.06 in 2.5 mi North - - N/A Snow Light Snow
10:15 PM 26.6 °F 24.8 °F 93% 30.06 in 5.0 mi North - - N/A Snow Light Snow
10:35 PM 26.6 °F 25.3 °F 95% 30.05 in 7.0 mi North - - N/A Snow Light Snow
10:55 PM 26.6 °F 25.2 °F 94% 30.05 in 10.0 mi North - - N/A Snow Light Snow
11:15 PM 26.8 °F 25.3 °F 94% 30.05 in 7.0 mi North - - N/A Snow Light Snow
11:35 PM 26.6 °F 25.2 °F 94% 30.05 in 5.0 mi North - - N/A Snow Light Snow
11:55 PM 26.6 °F 24.6 °F 92% 30.06 in 10.0 mi North - - N/A   Overcast